K3RTA-2 Weather Reports


Display with metric or nautical units.
time (UTC)temp
F
wind
direction
speed
MPH
gust
MPH
rain 1hr
in
rain 24hr
in
rain mn
in
humidity
%
barometer
mb
20260509141005 71 173 3.0 14.0 0.00 0.00 0.00 62 1012.7
20260509140504 71 157 3.0 14.0 0.00 0.00 0.00 62 1012.8
20260509135004 70 232 0.0 6.0 0.00 0.00 0.00 64 1012.8
20260509134504 70 209 2.0 6.0 0.00 0.00 0.00 65 1012.9
20260509134004 69 227 1.0 9.0 0.00 0.00 0.00 65 1012.9
20260509133504 69 229 3.0 9.0 0.00 0.00 0.00 65 1012.9
20260509133005 69 229 2.0 8.0 0.00 0.00 0.00 66 1013.0
20260509132503 68 165 2.0 8.0 0.00 0.00 0.00 66 1012.9
20260509131504 67 198 2.0 7.0 0.00 0.00 0.00 67 1013.0
20260509131003 67 169 1.0 6.0 0.00 0.00 0.00 67 1013.0
20260509130503 67 282 1.0 10.0 0.00 0.00 0.00 68 1013.0
20260509130004 67 222 1.0 10.0 0.00 0.00 0.00 68 1013.1
20260509125504 67 200 2.0 10.0 0.00 0.00 0.00 68 1013.1
20260509125004 67 229 1.0 7.0 0.00 0.00 0.00 69 1013.1
20260509124505 66 216 3.0 9.0 0.00 0.00 0.00 69 1013.2
20260509124004 66 192 3.0 9.0 0.00 0.00 0.00 70 1013.2
20260509123504 66 137 1.0 3.0 0.00 0.00 0.00 71 1013.1
20260509122504 65 264 3.0 10.0 0.00 0.00 0.00 72 1013.0
20260509122005 65 196 0.0 5.0 0.00 0.00 0.00 74 1013.1
20260509120503 63 226 2.0 12.0 0.00 0.00 0.00 76 1013.2
20260509120005 62 195 1.0 12.0 0.00 0.00 0.00 78 1013.3
20260509115506 62 292 1.0 8.0 0.00 0.00 0.00 79 1013.3
20260509115004 61 114 2.0 6.0 0.00 0.00 0.00 81 1013.3
20260509114004 60 183 1.0 3.0 0.00 0.00 0.00 83 1013.2
20260509113504 59 178 0.0 3.0 0.00 0.00 0.00 85 1013.3
20260509112504 58 222 1.0 7.0 0.00 0.00 0.00 85 1013.3
20260509111505 58 235 1.0 7.0 0.00 0.00 0.00 85 1013.3
20260509111004 57 239 0.0 3.0 0.00 0.00 0.00 86 1013.4
20260509110504 57 148 1.0 3.0 0.00 0.00 0.00 86 1013.4
20260509110004 57 230 0.0 5.0 0.00 0.00 0.00 86 1013.3
20260509105504 57 202 0.0 5.0 0.00 0.00 0.00 86 1013.5
20260509105004 56 224 0.0 3.0 0.00 0.00 0.00 86 1013.4
20260509104503 56 227 1.0 3.0 0.00 0.00 0.00 86 1013.4
20260509103504 56 158 1.0 6.0 0.00 0.00 0.00 86 1013.3
20260509103004 56 151 1.0 10.0 0.00 0.00 0.00 86 1013.3
20260509102004 56 173 0.0 3.0 0.00 0.00 0.00 85 1013.4
20260509101504 56 210 0.0 8.0 0.00 0.00 0.00 85 1013.4
20260509101004 56 205 0.0 8.0 0.00 0.00 0.00 85 1013.3
20260509100504 55 238 1.0 5.0 0.00 0.00 0.00 85 1013.2
20260509100004 56 197 0.0 6.0 0.00 0.00 0.00 85 1013.2
20260509095504 55 200 1.0 6.0 0.00 0.00 0.00 85 1013.3
20260509095004 55 194 1.0 6.0 0.00 0.00 0.00 84 1013.3
20260509094504 55 161 0.0 5.0 0.00 0.00 0.00 84 1013.3
20260509094005 55 189 1.0 5.0 0.00 0.00 0.00 84 1013.3
20260509093003 55 214 0.0 3.0 0.00 0.00 0.00 83 1013.2
20260509092504 56 234 1.0 3.0 0.00 0.00 0.00 83 1013.2
20260509092004 56 213 0.0 3.0 0.00 0.00 0.00 82 1013.2
20260509091504 56 181 0.0 3.0 0.00 0.00 0.00 82 1013.2
20260509091004 56 163 1.0 3.0 0.00 0.00 0.00 82 1013.2
20260509090505 56 215 0.0 1.0 0.00 0.00 0.00 82 1013.2
20260509085504 56 168 0.0 3.0 0.00 0.00 0.00 81 1013.3
20260509085004 56 230 0.0 3.0 0.00 0.00 0.00 81 1013.4
20260509084005 56 218 0.0 5.0 0.00 0.00 0.00 80 1013.3
20260509083504 56 188 1.0 8.0 0.00 0.00 0.00 80 1013.4
20260509083004 56 227 0.0 8.0 0.00 0.00 0.00 80 1013.4
20260509082505 56 146 0.0 3.0 0.00 0.00 0.00 80 1013.4
20260509082003 56 244 1.0 8.0 0.00 0.00 0.00 80 1013.3
20260509081504 56 119 1.0 8.0 0.00 0.00 0.00 80 1013.3
20260509081004 56 226 1.0 8.0 0.00 0.00 0.00 80 1013.4
20260509075505 56 163 0.0 6.0 0.00 0.00 0.00 79 1013.5
20260509075003 55 214 0.0 6.0 0.00 0.00 0.00 79 1013.6
20260509074503 55 203 0.0 2.0 0.00 0.00 0.00 78 1013.6
20260509074004 55 227 1.0 6.0 0.00 0.00 0.00 78 1013.7
20260509073504 55 205 1.0 6.0 0.00 0.00 0.00 78 1013.8
20260509073004 55 233 1.0 8.0 0.00 0.00 0.00 78 1013.8
20260509072504 55 176 1.0 8.0 0.00 0.00 0.00 78 1013.7
20260509071505 55 256 1.0 3.0 0.00 0.00 0.00 77 1013.9
20260509071004 55 237 0.0 3.0 0.00 0.00 0.00 77 1013.8
20260509070504 55 163 0.0 7.0 0.00 0.00 0.00 77 1013.7
20260509070003 54 224 2.0 7.0 0.00 0.00 0.00 77 1013.7
20260509065504 54 183 0.0 5.0 0.00 0.00 0.00 77 1013.6
20260509065004 54 155 1.0 5.0 0.00 0.00 0.00 77 1013.7
20260509064504 54 229 0.0 3.0 0.00 0.00 0.00 77 1013.8
20260509064005 54 176 1.0 5.0 0.00 0.00 0.00 76 1013.8
20260509062504 54 200 0.0 3.0 0.00 0.00 0.00 75 1013.8
20260509062004 54 216 1.0 5.0 0.00 0.00 0.00 75 1013.9
20260509061004 54 227 1.0 6.0 0.00 0.00 0.00 74 1013.8
20260509060505 54 256 1.0 6.0 0.00 0.00 0.00 74 1013.8
20260509060004 54 228 1.0 6.0 0.00 0.00 0.00 74 1013.8
20260509055504 54 151 0.0 3.0 0.00 0.00 0.00 74 1013.8
20260509054504 54 228 1.0 7.0 0.00 0.00 0.00 74 1013.8
20260509053504 54 236 0.0 5.0 0.00 0.00 0.00 73 1013.8
20260509053004 54 213 1.0 5.0 0.00 0.00 0.00 73 1013.9
20260509052504 54 215 0.0 7.0 0.00 0.00 0.00 73 1014.0
20260509051504 54 170 1.0 6.0 0.00 0.00 0.00 73 1013.9
20260509051004 54 153 0.0 3.0 0.00 0.00 0.00 72 1014.0
20260509050504 54 149 0.0 5.0 0.00 0.00 0.00 72 1014.0
20260509050004 54 173 1.0 5.0 0.00 0.00 0.00 72 1014.1
20260509045504 54 226 1.0 3.0 0.00 0.00 0.00 72 1014.0
20260509045004 54 217 0.0 3.0 0.00 0.00 0.00 72 1014.1
20260509044504 54 214 0.0 3.0 0.00 0.00 0.00 72 1014.2
20260509044003 54 215 0.0 3.0 0.00 0.00 0.00 72 1014.2
20260509043503 54 223 0.0 3.0 0.00 0.00 0.00 71 1014.2
20260509043003 54 177 1.0 3.0 0.00 0.01 0.00 71 1014.3
20260509042505 54 154 1.0 3.0 0.00 0.01 0.00 71 1014.2
20260509042004 54 215 0.0 6.0 0.00 0.01 0.00 71 1014.4
20260509041504 54 229 1.0 6.0 0.00 0.01 0.00 71 1014.5
20260509041004 54 244 1.0 3.0 0.00 0.01 0.00 70 1014.5
20260509040504 54 213 0.0 2.0 0.00 0.01 0.00 70 1014.5
20260509035505 54 178 0.0 5.0 0.00 0.01 0.00 69 1014.4
20260509035005 54 174 0.0 5.0 0.00 0.01 0.00 69 1014.4
20260509034504 54 228 0.0 3.0 0.00 0.01 0.00 69 1014.4
20260509034004 54 222 0.0 2.0 0.00 0.01 0.00 69 1014.5
20260509033504 54 291 0.0 3.0 0.00 0.01 0.00 68 1014.6
20260509032004 54 186 1.0 3.0 0.00 0.01 0.00 68 1014.5
20260509030504 54 196 1.0 5.0 0.00 0.01 0.00 67 1014.3
20260509030004 54 222 0.0 3.0 0.00 0.01 0.00 67 1014.4
20260509025505 54 179 0.0 8.0 0.00 0.01 0.00 66 1014.3
20260509025003 55 208 0.0 8.0 0.00 0.01 0.00 66 1014.3
20260509024504 55 155 2.0 7.0 0.00 0.01 0.00 65 1014.3
20260509024004 55 205 1.0 5.0 0.00 0.01 0.00 65 1014.3
20260509023504 55 229 0.0 5.0 0.00 0.01 0.00 65 1014.3
20260509023004 55 207 1.0 5.0 0.00 0.01 0.00 66 1014.4
20260509022503 55 230 0.0 3.0 0.00 0.01 0.00 65 1014.4
20260509022004 55 216 0.0 7.0 0.00 0.01 0.00 65 1014.3
20260509021503 55 160 2.0 7.0 0.00 0.01 0.00 65 1014.4
20260509021004 56 232 0.0 2.0 0.00 0.01 0.00 65 1014.3
20260509020504 56 180 0.0 5.0 0.00 0.01 0.00 66 1014.4
20260509020004 56 174 0.0 5.0 0.00 0.01 0.00 66 1014.3
20260509015505 56 170 0.0 3.0 0.00 0.01 0.00 66 1014.3
20260509015004 56 220 0.0 3.0 0.00 0.01 0.00 67 1014.3
20260509014504 56 179 1.0 2.0 0.00 0.01 0.00 66 1014.3
20260509014006 56 151 0.0 3.0 0.00 0.01 0.00 66 1014.3
20260509013004 57 224 0.0 7.0 0.00 0.01 0.00 67 1014.2
20260509011504 57 171 1.0 3.0 0.00 0.01 0.00 66 1014.0
20260509011005 57 171 0.0 2.0 0.00 0.01 0.00 65 1013.8
20260509010005 58 206 0.0 3.0 0.00 0.01 0.00 63 1013.7
20260509005504 58 206 1.0 5.0 0.00 0.01 0.00 62 1013.6
20260509004504 59 239 1.0 6.0 0.00 0.01 0.00 61 1013.6
20260509004004 59 222 0.0 6.0 0.00 0.01 0.00 60 1013.5
20260509002504 60 198 0.0 1.0 0.00 0.01 0.00 54 1013.5
20260509002005 61 157 0.0 1.0 0.00 0.01 0.00 51 1013.5
20260509001504 61 161 0.0 2.0 0.00 0.01 0.00 50 1013.5
20260509000504 62 170 0.0 2.0 0.00 0.01 0.00 50 1013.3
20260508235504 62 225 1.0 5.0 0.00 0.01 0.00 49 1013.3
20260508235004 62 228 1.0 8.0 0.00 0.01 0.00 48 1013.2
20260508234504 63 117 1.0 8.0 0.00 0.01 0.00 48 1013.1
20260508234005 63 172 1.0 7.0 0.00 0.01 0.00 47 1013.2
20260508233004 64 227 2.0 7.0 0.00 0.01 0.00 47 1013.0
20260508232004 64 152 2.0 7.0 0.00 0.01 0.00 47 1012.9
20260508231505 64 224 2.0 6.0 0.00 0.01 0.00 47 1012.8
20260508231004 64 171 2.0 7.0 0.00 0.01 0.00 46 1012.9
20260508230504 64 291 1.0 10.0 0.00 0.01 0.00 47 1012.8
20260508230004 65 221 1.0 10.0 0.00 0.01 0.00 47 1012.9
20260508225505 65 175 2.0 10.0 0.00 0.01 0.00 45 1012.9
20260508225005 65 123 1.0 8.0 0.00 0.01 0.00 46 1012.9
20260508224504 65 222 2.0 8.0 0.00 0.01 0.00 45 1012.9
20260508224004 65 215 2.0 10.0 0.00 0.01 0.00 47 1012.9
20260508223504 65 204 2.0 10.0 0.00 0.01 0.00 46 1012.8
20260508223004 66 164 2.0 8.0 0.00 0.01 0.00 45 1012.8
20260508222504 66 78 1.0 10.0 0.00 0.01 0.00 44 1012.8
20260508221505 67 226 2.0 9.0 0.00 0.01 0.00 43 1012.8
20260508220504 68 128 3.0 8.0 0.00 0.01 0.00 42 1012.7
20260508215503 68 211 2.0 7.0 0.00 0.01 0.00 43 1012.6
20260508215004 68 179 2.0 7.0 0.00 0.01 0.00 42 1012.5
20260508214504 68 74 0.0 7.0 0.00 0.01 0.00 42 1012.6
20260508213505 68 102 2.0 6.0 0.00 0.01 0.00 43 1012.6
20260508212504 68 98 1.0 8.0 0.00 0.01 0.00 43 1012.7
20260508212004 68 226 4.0 10.0 0.00 0.01 0.00 41 1012.8
20260508211504 68 323 3.0 10.0 0.00 0.02 0.00 42 1012.8
20260508211004 68 303 2.0 10.0 0.00 0.02 0.00 41 1012.8
20260508210505 68 338 3.0 10.0 0.00 0.02 0.00 41 1012.8
20260508210004 69 146 3.0 10.0 0.00 0.03 0.00 41 1012.7
20260508205504 69 82 1.0 7.0 0.00 0.03 0.00 42 1012.6
20260508205005 68 208 3.0 8.0 0.00 0.04 0.00 41 1012.7
20260508204504 69 137 3.0 8.0 0.00 0.04 0.00 41 1012.9
20260508204004 69 328 1.0 6.0 0.00 0.05 0.00 42 1013.0
20260508203504 68 41 2.0 12.0 0.00 0.05 0.00 42 1013.0
20260508203004 69 81 3.0 12.0 0.00 0.05 0.00 42 1013.0
20260508202504 68 278 3.0 9.0 0.00 0.05 0.00 41 1013.0
20260508202004 69 228 2.0 10.0 0.00 0.05 0.00 42 1013.1
20260508201504 69 156 3.0 10.0 0.00 0.05 0.00 41 1013.0
20260508201004 69 199 3.0 14.0 0.00 0.06 0.00 41 1013.1
20260508200004 69 344 2.0 5.0 0.00 0.07 0.00 41 1013.1
20260508195504 69 344 2.0 6.0 0.00 0.07 0.00 41 1013.0
20260508195004 69 271 2.0 7.0 0.00 0.07 0.00 40 1013.1
20260508194504 70 262 2.0 8.0 0.00 0.07 0.00 41 1013.0
20260508193504 69 170 2.0 10.0 0.00 0.07 0.00 42 1013.1
20260508193004 69 170 3.0 8.0 0.00 0.08 0.00 41 1013.2
20260508192004 69 111 1.0 12.0 0.00 0.08 0.00 37 1013.3
20260508191004 69 222 2.0 10.0 0.00 0.08 0.00 39 1013.3
20260508190504 69 33 2.0 9.0 0.00 0.08 0.00 38 1013.5
20260508190005 69 1 3.0 9.0 0.00 0.08 0.00 35 1013.5
20260508185504 70 1 2.0 9.0 0.00 0.09 0.00 36 1013.3
20260508185004 70 285 1.0 8.0 0.00 0.09 0.00 36 1013.4
20260508184504 69 267 2.0 8.0 0.00 0.09 0.00 36 1013.5
20260508184004 69 132 1.0 7.0 0.00 0.09 0.00 36 1013.7
20260508183505 69 306 2.0 8.0 0.00 0.09 0.00 36 1013.7
20260508183005 69 43 2.0 8.0 0.00 0.09 0.00 37 1013.9
20260508182504 69 228 3.0 8.0 0.00 0.09 0.00 36 1013.9
20260508181504 69 292 2.0 9.0 0.00 0.09 0.00 37 1014.0
20260508181005 69 138 2.0 7.0 0.00 0.09 0.00 36 1013.9
20260508180504 69 213 3.0 13.0 0.00 0.09 0.00 39 1014.0
20260508180003 69 162 2.0 13.0 0.00 0.09 0.00 40 1014.0
20260508175504 69 132 2.0 6.0 0.00 0.09 0.00 37 1014.1
20260508175004 68 148 1.0 8.0 0.00 0.09 0.00 38 1014.1
20260508174504 68 162 2.0 8.0 0.00 0.09 0.00 37 1014.2
20260508174004 68 305 1.0 12.0 0.00 0.09 0.00 40 1014.2
20260508173505 68 315 3.0 12.0 0.00 0.09 0.00 37 1014.3
20260508172504 68 99 2.0 9.0 0.00 0.09 0.00 38 1014.3
20260508172004 68 242 2.0 9.0 0.00 0.09 0.00 39 1014.3
20260508171504 68 299 2.0 6.0 0.00 0.09 0.00 38 1014.3
20260508171003 68 339 1.0 6.0 0.00 0.09 0.00 40 1014.4
20260508170503 67 342 2.0 10.0 0.00 0.09 0.00 41 1014.4
20260508170004 67 224 2.0 10.0 0.00 0.09 0.00 40 1014.5
20260508165503 67 190 3.0 6.0 0.00 0.09 0.00 39 1014.4
20260508164504 67 0 1.0 5.0 0.00 0.09 0.00 41 1014.6
20260508163504 66 186 0.0 7.0 0.00 0.09 0.00 42 1014.7
20260508163003 66 335 2.0 7.0 0.00 0.09 0.00 43 1014.8
20260508162005 66 352 2.0 8.0 0.00 0.09 0.00 41 1014.9
20260508161504 66 311 2.0 8.0 0.00 0.09 0.00 42 1014.9
20260508160504 66 74 1.0 3.0 0.00 0.09 0.00 42 1015.1
20260508160004 65 276 2.0 6.0 0.00 0.09 0.00 42 1015.0
20260508154004 66 151 1.0 5.0 0.00 0.09 0.09 44 1015.1
20260508153504 65 264 1.0 3.0 0.00 0.09 0.09 44 1015.1
20260508153004 65 215 0.0 5.0 0.00 0.09 0.09 44 1015.2
20260508152504 64 293 1.0 6.0 0.00 0.09 0.09 45 1015.2
20260508152004 63 267 1.0 6.0 0.00 0.09 0.09 45 1015.1
20260508151504 63 350 2.0 6.0 0.00 0.09 0.09 43 1015.2
20260508151004 63 45 1.0 7.0 0.00 0.09 0.09 48 1015.3
20260508150504 63 299 2.0 7.0 0.00 0.09 0.09 45 1015.4
20260508145504 61 180 1.0 6.0 0.00 0.09 0.09 48 1015.6
20260508145004 61 10 3.0 6.0 0.00 0.09 0.09 45 1015.7
20260508144505 62 28 2.0 3.0 0.00 0.09 0.09 52 1015.7
20260508144004 61 34 0.0 3.0 0.00 0.09 0.09 49 1015.7
20260508143504 61 330 1.0 3.0 0.00 0.09 0.09 48 1015.7
20260508143005 60 27 1.0 7.0 0.00 0.09 0.09 50 1015.8
20260508142505 60 53 2.0 7.0 0.00 0.09 0.09 50 1015.7
20260508142004 60 15 2.0 6.0 0.00 0.09 0.09 50 1015.8